Погода в Матвеевке

Россия / Оренбургская область     52°09′20″N   53°17′03″E
темп.,
°C
ветер,
м/с
пор.,
м/с
влажн.,
%
обл.,
%
осадки,
мм/ч
давл.,
гПа
погр.,
м
15 апреля, чт
чт1523:00+10вюв410660 0.0 1026178
02:00+9вюв412760 0.0 1025184
05:00+9юв48740 0.0 1024100
08:00+9юв410710 0.0 1024191
11:00+16юв684622 0.0 1023443
14:00+19юв673489 0.0 1022946
17:00+20юв573187 0.0 10211499
20:00+15вюв344977 0.0 102039
16 апреля, пт
пт1623:00+12вюв35524 0.0 102055
02:00+10вюв34605 0.0 101948
05:00+9вюв33635 0.0 101921
08:00+9в35635 0.0 101996
11:00+16в454241 0.0 1019467
14:00+19в45315 0.0 10191547
17:00+20в44285 0.0 10182030
20:00+15всв344540 0.0 101847
17 апреля, сб
сб1723:00+12всв485375 0.0 1019124
02:00+10св466024 0.0 101981
05:00+8св3789100 0.0 1020132
08:00+9св367993 0.0 1021159
11:00+14всв565663 0.0 1021543
14:00+18всв55423 0.0 10201289
17:00+18всв44386 0.0 10201561
20:00+15св34531 0.0 102056
18 апреля, вс
вс1823:00+12всв34620 0.0 102048
02:00+10св35750 0.0 102077
05:00+8всв33860 0.0 102050
08:00+9всв478372 0.0 1020180
11:00+14всв555937 0.0 1019568
14:00+16всв4446100 0.0 10191141
17:00+16св544398 0.0 10181317
20:00+13св5104897 0.0 1018309
19 апреля, пн
пн1923:00+10всв6135271 0.0 1019494
02:00+8св61263100 0.0 1019459
05:00+6всв61075100 0.0 1020568
08:00+4в81363100 0.0 1022678
11:00+5в10125435 0.0 10231002
14:00+5в101256100 0.0 10241135
17:00+6в9114885 0.0 10241400
20:00+4в812443 0.0 10251154